Погода в Проснице

Россия / Кировская область     58˚26′31″N   50˚14′02″E
темп.,
°C
ветер,
м/с
пор.,
м/с
влажн.,
%
обл.,
%
осадки,
мм/ч
давл.,
гПа
погр.,
м
17 января, вс
вс1700:00−13˚ссв3795100 0.4 996335
03:00−14˚с3795100 0.8 997409
06:00−15˚с3795100 0.4 998399
09:00−16˚ссз4894100 0.4 1001465
12:00−18˚ссз3692100 0.0 1005378
15:00−21˚сз259697 0.0 1009117
18:00−24˚ссз23960 0.0 101221
21:00−25˚зсз12960 0.0 101519
18 января, пн
пн1800:00−25˚зюз129714 0.0 101719
03:00−25˚зюз22967 0.0 101720
06:00−24˚юз239649 0.0 101758
09:00−23˚юз369667 0.0 1017166
12:00−20˚зюз359481 0.0 1017238
15:00−21˚юз239785 0.0 101732
18:00−23˚юз239754 0.0 101823
21:00−24˚зюз129869 0.0 101820
19 января, вт
вт1900:00−23˚юз119999 0.1 101920
03:00−24˚всв009991 0.1 101920
06:00−24˚вюв129984 0.0 101820
09:00−24˚в119891 0.1 101920
12:00−20˚в129486 0.0 1018184
15:00−21˚всв129787 0.0 101720
18:00−23˚св229879 0.0 101620
21:00−23˚св229773 0.0 101520
20 января, ср
ср2000:00−24˚св229164 0.0 101420
03:00−25˚ссв238959 0.0 101321
06:00−25˚с229338 0.0 101220
09:00−26˚с229629 0.0 101220
12:00−21˚сз12940 0.0 1012152
15:00−23˚зсз22978 0.0 101120
18:00−25˚з129527 0.0 101220
21:00−21˚зюз129963 0.1 101250
21 января, чт
чт2100:00−20˚з239990 0.1 101281
03:00−19˚з239990 0.2 101258
06:00−18˚з249895 0.1 1012106
09:00−17˚з269796 0.3 1013209
12:00−15˚зсз3594100 0.1 1014338
15:00−17˚з2497100 0.1 1014125
18:00−20˚зсз2299100 0.1 101522
21:00−21˚зсз1299100 0.1 101520